• In Hungary
  • List of Countries
  • For 7 days
  • Water Temperature
  • Satellite Maps
  • Weather Map
  • News
  • Weather Widgets
  • user-avatar
    Login

    Hourly Weather Miszkowice

    Today, 13 December, Wednesday

    Time Temperature Precipitation Wind Pressure Humidity
    00:00 -1°C° 0 mm 4 mps 755 mmHg 87%
    01:00 -1°C° 0 mm 4 mps 755 mmHg 90%
    02:00 -1°C° 0 mm 4 mps 756 mmHg 90%
    03:00 -1°C° 0 mm 4 mps 756 mmHg 89%
    04:00 -1°C° 0 mm 4 mps 756 mmHg 88%
    05:00 -2°C° 0 mm 4 mps 756 mmHg 89%
    06:00 -2°C° 0 mm 4 mps 756 mmHg 90%
    07:00 -2°C° 0 mm 4 mps 756 mmHg 90%
    08:00 -2°C° 0 mm 4 mps 755 mmHg 87%
    09:00 -1°C° 0 mm 5 mps 755 mmHg 84%
    10:00 -1°C° 0 mm 5 mps 755 mmHg 80%
    11:00 -1°C° 0 mm 6 mps 754 mmHg 77%
    12:00 -1°C° 0 mm 6 mps 754 mmHg 74%
    13:00 +1°C° 0 mm 6 mps 753 mmHg 70%
    14:00 +1°C° 0 mm 6 mps 752 mmHg 71%
    15:00 +1°C° 0 mm 6 mps 751 mmHg 72%
    16:00 -1°C° 0 mm 6 mps 750 mmHg 73%
    17:00 -1°C° 0.1 mm 6 mps 749 mmHg 72%
    18:00 0°C° 0.1 mm 7 mps 748 mmHg 71%
    19:00 0°C° 0.1 mm 7 mps 747 mmHg 69%
    20:00 0°C° 0.5 mm 7 mps 746 mmHg 73%
    21:00 0°C° 0.5 mm 7 mps 745 mmHg 76%
    22:00 0°C° 0.5 mm 7 mps 744 mmHg 79%
    23:00 0°C° 0.1 mm 7 mps 743 mmHg 79%

    Tomorrow, 14 December, Thursday

    Time Temperature Precipitation Wind Pressure Humidity
    00:00 0°C° 0.1 mm 7 mps 742 mmHg 79%
    01:00 +1°C° 0.1 mm 6 mps 741 mmHg 79%
    02:00 +2°C° 0.5 mm 7 mps 739 mmHg 79%
    03:00 +2°C° 0.5 mm 7 mps 738 mmHg 80%
    04:00 +1°C° 0.5 mm 8 mps 737 mmHg 80%
    05:00 +2°C° 0.5 mm 7 mps 737 mmHg 81%
    06:00 +2°C° 0.5 mm 7 mps 737 mmHg 82%
    07:00 +2°C° 0.5 mm 6 mps 737 mmHg 83%
    08:00 +2°C° 0.2 mm 6 mps 737 mmHg 81%
    09:00 +2°C° 0.2 mm 6 mps 737 mmHg 80%
    10:00 +2°C° 0.2 mm 6 mps 737 mmHg 79%
    11:00 +2°C° 0.3 mm 6 mps 738 mmHg 78%
    12:00 +2°C° 0.3 mm 6 mps 738 mmHg 78%
    13:00 +2°C° 0.3 mm 7 mps 739 mmHg 77%
    14:00 0°C° 0.5 mm 7 mps 739 mmHg 77%
    15:00 0°C° 0.5 mm 7 mps 740 mmHg 76%
    16:00 0°C° 0.5 mm 7 mps 741 mmHg 75%
    17:00 +1°C° 0 mm 6 mps 741 mmHg 76%
    18:00 -1°C° 0 mm 6 mps 741 mmHg 77%
    19:00 0°C° 0 mm 5 mps 741 mmHg 78%
    20:00 0°C° 0 mm 5 mps 741 mmHg 80%
    21:00 -1°C° 0 mm 4 mps 741 mmHg 83%
    22:00 -1°C° 0 mm 4 mps 741 mmHg 85%
    23:00 -1°C° 0 mm 4 mps 740 mmHg 87%

    Day after tomorrow, 15 December, Friday

    Time Temperature Precipitation Wind Pressure Humidity
    00:00 -1°C° 0 mm 4 mps 740 mmHg 88%
    01:00 -1°C° 0 mm 4 mps 740 mmHg 90%
    02:00 -1°C° 0 mm 3 mps 739 mmHg 91%
    03:00 -1°C° 0 mm 2 mps 739 mmHg 92%
    04:00 -1°C° 0 mm 2 mps 738 mmHg 92%
    05:00 -1°C° 0.4 mm 2 mps 738 mmHg 92%
    06:00 +1°C° 0.4 mm 2 mps 738 mmHg 92%
    07:00 +1°C° 0.4 mm 2 mps 737 mmHg 92%
    08:00 0°C° 1 mm 3 mps 738 mmHg 91%
    09:00 0°C° 1 mm 3 mps 739 mmHg 90%
    10:00 -1°C° 1 mm 4 mps 739 mmHg 89%
    11:00 0°C° 0.1 mm 5 mps 740 mmHg 88%
    12:00 0°C° 0.1 mm 5 mps 741 mmHg 88%
    13:00 0°C° 0.1 mm 5 mps 741 mmHg 87%
    14:00 0°C° 0 mm 5 mps 742 mmHg 88%
    15:00 0°C° 0 mm 5 mps 743 mmHg 88%
    16:00 0°C° 0 mm 4 mps 743 mmHg 89%
    17:00 -1°C° 0 mm 4 mps 743 mmHg 89%
    18:00 -1°C° 0 mm 4 mps 744 mmHg 89%
    19:00 -1°C° 0 mm 4 mps 744 mmHg 89%
    20:00 -2°C° 0 mm 4 mps 744 mmHg 90%
    21:00 -2°C° 0 mm 4 mps 745 mmHg 91%
    22:00 -2°C° 0 mm 3 mps 745 mmHg 91%
    23:00 -2°C° 0 mm 3 mps 745 mmHg 92%

    16 December, Saturday

    Time Temperature Precipitation Wind Pressure Humidity
    00:00 -2°C° 0 mm 3 mps 745 mmHg 92%
    01:00 -2°C° 0 mm 3 mps 745 mmHg 93%
    02:00 -2°C° 0 mm 3 mps 745 mmHg 93%
    03:00 -2°C° 0 mm 2 mps 745 mmHg 93%
    04:00 -2°C° 0 mm 2 mps 745 mmHg 94%
    05:00 -2°C° 0 mm 2 mps 745 mmHg 94%
    06:00 -2°C° 0 mm 3 mps 746 mmHg 95%
    07:00 -2°C° 0 mm 3 mps 746 mmHg 95%
    08:00 -2°C° 0 mm 3 mps 746 mmHg 94%
    09:00 -2°C° 0 mm 4 mps 747 mmHg 93%
    10:00 -1°C° 0 mm 4 mps 747 mmHg 93%
    11:00 -1°C° 0 mm 4 mps 748 mmHg 90%
    12:00 0°C° 0 mm 5 mps 748 mmHg 88%
    13:00 0°C° 0 mm 5 mps 748 mmHg 86%
    14:00 0°C° 0 mm 5 mps 749 mmHg 86%
    15:00 0°C° 0 mm 5 mps 749 mmHg 86%
    16:00 0°C° 0 mm 5 mps 750 mmHg 85%
    17:00 -1°C° 0 mm 4 mps 750 mmHg 87%
    18:00 -2°C° 0 mm 4 mps 751 mmHg 88%
    19:00 -2°C° 0 mm 4 mps 751 mmHg 90%
    20:00 -2°C° 0 mm 4 mps 752 mmHg 90%
    21:00 -2°C° 0 mm 4 mps 752 mmHg 91%
    22:00 -2°C° 0 mm 4 mps 753 mmHg 92%
    23:00 -2°C° 0 mm 4 mps 753 mmHg 92%

    17 December, Sunday

    Time Temperature Precipitation Wind Pressure Humidity
    00:00 -2°C° 0 mm 4 mps 754 mmHg 92%
    01:00 -3°C° 0 mm 4 mps 754 mmHg 92%
    02:00 -3°C° 0 mm 4 mps 755 mmHg 92%
    03:00 -3°C° 0 mm 4 mps 755 mmHg 92%
    04:00 -3°C° 0 mm 4 mps 756 mmHg 92%
    05:00 -3°C° 0.1 mm 4 mps 757 mmHg 91%
    06:00 -2°C° 0.1 mm 4 mps 757 mmHg 91%
    07:00 -2°C° 0.1 mm 4 mps 758 mmHg 90%
    08:00 -1°C° 0 mm 3 mps 759 mmHg 89%
    09:00 -1°C° 0 mm 3 mps 760 mmHg 88%
    10:00 -1°C° 0 mm 3 mps 761 mmHg 87%
    11:00 0°C° 0 mm 3 mps 761 mmHg 85%
    12:00 0°C° 0 mm 3 mps 761 mmHg 82%
    13:00 0°C° 0 mm 3 mps 762 mmHg 80%
    14:00 -1°C° 0 mm 3 mps 762 mmHg 83%
    15:00 -1°C° 0 mm 3 mps 763 mmHg 85%
    16:00 -2°C° 0 mm 2 mps 763 mmHg 88%
    17:00 -2°C° 0 mm 2 mps 764 mmHg 89%
    18:00 -3°C° 0 mm 2 mps 764 mmHg 91%
    19:00 -3°C° 0 mm 2 mps 765 mmHg 92%
    20:00 -3°C° 0 mm 2 mps 765 mmHg 93%
    21:00 -3°C° 0 mm 2 mps 766 mmHg 93%
    22:00 -3°C° 0 mm 2 mps 766 mmHg 94%
    23:00 -3°C° 0 mm 2 mps 766 mmHg 94%

    18 December, Monday

    Time Temperature Precipitation Wind Pressure Humidity
    00:00 -3°C° 0 mm 2 mps 766 mmHg 93%
    01:00 -3°C° 0 mm 2 mps 766 mmHg 93%
    02:00 -3°C° 0 mm 2 mps 766 mmHg 94%
    03:00 -3°C° 0 mm 2 mps 766 mmHg 94%
    04:00 -3°C° 0 mm 2 mps 766 mmHg 94%
    05:00 -3°C° 0 mm 2 mps 766 mmHg 94%
    06:00 -2°C° 0 mm 2 mps 766 mmHg 95%
    07:00 -2°C° 0 mm 3 mps 766 mmHg 95%
    08:00 -1°C° 0 mm 3 mps 766 mmHg 94%
    09:00 -1°C° 0 mm 3 mps 766 mmHg 93%
    10:00 0°C° 0 mm 3 mps 766 mmHg 92%
    11:00 0°C° 0 mm 3 mps 766 mmHg 92%
    12:00 0°C° 0 mm 3 mps 765 mmHg 91%
    13:00 0°C° 0 mm 3 mps 765 mmHg 90%
    14:00 0°C° 0 mm 3 mps 765 mmHg 91%
    15:00 0°C° 0 mm 3 mps 764 mmHg 91%
    16:00 -1°C° 0 mm 3 mps 764 mmHg 92%
    17:00 -1°C° 0 mm 3 mps 764 mmHg 92%
    18:00 -1°C° 0 mm 3 mps 764 mmHg 92%
    19:00 -2°C° 0 mm 3 mps 764 mmHg 92%
    20:00 -2°C° 0 mm 3 mps 764 mmHg 92%
    21:00 -2°C° 0 mm 2 mps 765 mmHg 93%
    22:00 -2°C° 0 mm 2 mps 765 mmHg 93%
    23:00 -2°C° 0 mm 2 mps 765 mmHg 93%
    Show more